| time (UTC) | temp F | wind direction | speed knots | gust knots | rain 1hr in | rain 24hr in | rain mn in | humidity % | barometer mb |
| 20260510164237 | 80 | 18 | 1.7 | 2.6 | 0.00 | 0.00 | 0.00 | 43 | 1031.7 |
| 20260510163732 | 79 | 221 | 1.7 | 1.7 | 0.00 | 0.00 | 0.00 | 44 | 1031.6 |
| 20260510163228 | 79 | 181 | 0.9 | 1.7 | 0.00 | 0.00 | 0.00 | 46 | 1031.8 |
| 20260510162727 | 79 | 211 | 1.7 | 2.6 | 0.00 | 0.00 | 0.00 | 43 | 1031.9 |
| 20260510162225 | 79 | 183 | 0.9 | 1.7 | 0.00 | 0.00 | 0.00 | 44 | 1032.0 |
| 20260510161721 | 79 | 204 | 1.7 | 1.7 | 0.00 | 0.00 | 0.00 | 44 | 1032.0 |
| 20260510161217 | 79 | 66 | 0.9 | 2.6 | 0.00 | 0.00 | 0.00 | 45 | 1032.0 |
| 20260510160715 | 79 | 220 | 2.6 | 2.6 | 0.00 | 0.00 | 0.00 | 45 | 1032.0 |
| 20260510160210 | 78 | 215 | 1.7 | 2.6 | 0.00 | 0.00 | 0.00 | 45 | 1031.9 |
| 20260510155706 | 78 | 192 | 0.9 | 1.7 | 0.00 | 0.00 | 0.00 | 45 | 1032.0 |
| 20260510155202 | 78 | 152 | 0.9 | 0.9 | 0.00 | 0.00 | 0.00 | 46 | 1032.1 |
| 20260510154657 | 78 | 149 | 0.0 | 0.9 | 0.00 | 0.00 | 0.00 | 46 | 1032.1 |
| 20260510154153 | 78 | 146 | 0.9 | 0.9 | 0.00 | 0.00 | 0.00 | 48 | 1032.4 |
| 20260510153648 | 78 | 109 | 0.9 | 0.9 | 0.00 | 0.00 | 0.00 | 48 | 1032.2 |
| 20260510153146 | 77 | 13 | 0.9 | 2.6 | 0.00 | 0.00 | 0.00 | 49 | 1032.3 |
| 20260510152642 | 77 | 207 | 0.0 | 1.7 | 0.00 | 0.00 | 0.00 | 53 | 1032.3 |
| 20260510152138 | 77 | 227 | 3.5 | 2.6 | 0.00 | 0.00 | 0.00 | 51 | 1032.2 |
| 20260510151635 | 77 | 153 | 0.9 | 1.7 | 0.00 | 0.00 | 0.00 | 53 | 1032.3 |
| 20260510151133 | 76 | 246 | 0.9 | 0.9 | 0.00 | 0.00 | 0.00 | 57 | 1032.0 |
| 20260510150628 | 76 | 50 | 0.9 | 0.9 | 0.00 | 0.00 | 0.00 | 56 | 1032.0 |
| 20260510150124 | 76 | 258 | 0.9 | 1.7 | 0.00 | 0.00 | 0.00 | 57 | 1032.2 |
| 20260510145620 | 76 | 182 | 0.9 | 1.7 | 0.00 | 0.00 | 0.00 | 55 | 1032.1 |
| 20260510145117 | 75 | 149 | 0.9 | 0.9 | 0.00 | 0.00 | 0.00 | 58 | 1032.0 |
| 20260510144613 | 75 | 278 | 0.9 | 0.9 | 0.00 | 0.00 | 0.00 | 55 | 1032.0 |
| 20260510144109 | 75 | 134 | 0.0 | 0.9 | 0.00 | 0.00 | 0.00 | 58 | 1032.2 |
| 20260510143605 | 75 | 11 | 0.9 | 2.6 | 0.00 | 0.00 | 0.00 | 59 | 1032.0 |
| 20260510143101 | 74 | 204 | 0.0 | 0.9 | 0.00 | 0.00 | 0.00 | 61 | 1031.9 |
| 20260510142558 | 73 | 248 | 1.7 | 2.6 | 0.00 | 0.00 | 0.00 | 61 | 1032.0 |
| 20260510142055 | 74 | 40 | 0.9 | 2.6 | 0.00 | 0.00 | 0.00 | 62 | 1032.0 |
| 20260510141552 | 73 | 24 | 3.5 | 4.3 | 0.00 | 0.00 | 0.00 | 63 | 1031.8 |
| 20260510141050 | 73 | 162 | 0.9 | 0.9 | 0.00 | 0.00 | 0.00 | 66 | 1031.9 |
| 20260510140546 | 73 | 46 | 0.9 | 0.9 | 0.00 | 0.00 | 0.00 | 67 | 1031.9 |
| 20260510140045 | 72 | 61 | 0.9 | 1.7 | 0.00 | 0.00 | 0.00 | 68 | 1032.1 |
| 20260510135541 | 71 | 44 | 0.9 | 0.9 | 0.00 | 0.00 | 0.00 | 71 | 1032.0 |
| 20260510135038 | 71 | 43 | 0.0 | 0.9 | 0.00 | 0.00 | 0.00 | 72 | 1032.1 |
| 20260510134535 | 71 | 30 | 1.7 | 1.7 | 0.00 | 0.00 | 0.00 | 72 | 1031.9 |
| 20260510134031 | 70 | 262 | 0.9 | 2.6 | 0.00 | 0.00 | 0.00 | 74 | 1031.8 |
| 20260510133527 | 70 | 235 | 0.0 | 1.7 | 0.00 | 0.00 | 0.00 | 75 | 1031.9 |
| 20260510133024 | 69 | 226 | 0.9 | 1.7 | 0.00 | 0.00 | 0.00 | 78 | 1031.9 |
| 20260510132521 | 69 | 25 | 0.9 | 1.7 | 0.00 | 0.00 | 0.00 | 78 | 1032.0 |
| 20260510132017 | 69 | 353 | 0.9 | 1.7 | 0.00 | 0.00 | 0.00 | 79 | 1031.7 |
| 20260510131515 | 68 | 236 | 0.0 | 0.9 | 0.00 | 0.00 | 0.00 | 82 | 1031.7 |
| 20260510131012 | 68 | 220 | 0.0 | 0.9 | 0.00 | 0.00 | 0.00 | 84 | 1031.7 |
| 20260510130508 | 67 | 221 | 0.9 | 0.9 | 0.00 | 0.00 | 0.00 | 86 | 1031.6 |
| 20260510130006 | 67 | 31 | 0.9 | 2.6 | 0.00 | 0.00 | 0.00 | 85 | 1031.6 |
| 20260510125502 | 66 | 220 | 0.0 | 0.0 | 0.00 | 0.00 | 0.00 | 88 | 1031.3 |
| 20260510124958 | 66 | 221 | 0.0 | 2.6 | 0.00 | 0.00 | 0.00 | 88 | 1031.5 |
| 20260510124455 | 66 | 216 | 0.0 | 0.9 | 0.00 | 0.00 | 0.00 | 89 | 1031.5 |
| 20260510123952 | 65 | 273 | 0.9 | 2.6 | 0.00 | 0.00 | 0.00 | 90 | 1031.5 |
| 20260510123447 | 65 | 216 | 0.0 | 0.9 | 0.00 | 0.00 | 0.00 | 92 | 1031.6 |
| 20260510122943 | 64 | 219 | 0.9 | 1.7 | 0.00 | 0.00 | 0.00 | 92 | 1031.4 |
| 20260510122439 | 64 | 248 | 0.9 | 1.7 | 0.00 | 0.00 | 0.00 | 93 | 1031.2 |
| 20260510121935 | 64 | 222 | 0.9 | 1.7 | 0.00 | 0.00 | 0.00 | 94 | 1031.2 |
| 20260510121433 | 64 | 222 | 0.0 | 0.0 | 0.00 | 0.00 | 0.00 | 95 | 1031.2 |
| 20260510120930 | 63 | 222 | 0.9 | 0.9 | 0.00 | 0.00 | 0.00 | 96 | 1031.2 |
| 20260510120427 | 63 | 226 | 0.0 | 0.0 | 0.00 | 0.00 | 0.00 | 96 | 1031.1 |
| 20260510115923 | 62 | 226 | 0.9 | 0.9 | 0.00 | 0.00 | 0.00 | 97 | 1031.2 |
| 20260510115420 | 62 | 226 | 0.9 | 1.7 | 0.00 | 0.00 | 0.00 | 98 | 1031.3 |
| 20260510114916 | 61 | 226 | 0.0 | 0.0 | 0.00 | 0.00 | 0.00 | 98 | 1031.3 |
| 20260510114413 | 61 | 226 | 0.0 | 0.0 | 0.00 | 0.00 | 0.00 | 98 | 1031.1 |
| 20260510113908 | 60 | 226 | 0.0 | 0.0 | 0.00 | 0.00 | 0.00 | 97 | 1030.8 |
| 20260510113404 | 60 | 226 | 0.0 | 0.0 | 0.00 | 0.00 | 0.00 | 98 | 1030.6 |
| 20260510112902 | 60 | 226 | 0.0 | 0.0 | 0.00 | 0.00 | 0.00 | 98 | 1030.8 |
| 20260510112359 | 59 | 226 | 0.0 | 0.0 | 0.00 | 0.00 | 0.00 | 98 | 1030.5 |
| 20260510111854 | 59 | 226 | 0.0 | 0.0 | 0.00 | 0.00 | 0.00 | 98 | 1030.7 |
| 20260510111351 | 59 | 226 | 0.0 | 0.0 | 0.00 | 0.00 | 0.00 | 98 | 1030.4 |
| 20260510110846 | 59 | 226 | 0.0 | 0.0 | 0.00 | 0.00 | 0.00 | 98 | 1030.5 |
| 20260510110343 | 59 | 226 | 0.0 | 0.0 | 0.00 | 0.00 | 0.00 | 98 | 1030.3 |
| 20260510105840 | 59 | 226 | 0.0 | 0.0 | 0.00 | 0.00 | 0.00 | 98 | 1030.4 |
| 20260510105339 | 59 | 226 | 0.9 | 0.9 | 0.00 | 0.00 | 0.00 | 98 | 1030.2 |
| 20260510104835 | 59 | 226 | 0.0 | 0.0 | 0.00 | 0.00 | 0.00 | 98 | 1030.1 |
| 20260510104333 | 59 | 226 | 0.0 | 0.0 | 0.00 | 0.00 | 0.00 | 98 | 1030.1 |
| 20260510103829 | 59 | 226 | 0.0 | 0.0 | 0.00 | 0.00 | 0.00 | 98 | 1029.8 |
| 20260510103326 | 59 | 226 | 0.0 | 0.0 | 0.00 | 0.00 | 0.00 | 98 | 1030.1 |
| 20260510102821 | 59 | 226 | 0.0 | 0.0 | 0.00 | 0.00 | 0.00 | 98 | 1029.9 |
| 20260510102317 | 59 | 226 | 0.0 | 0.0 | 0.00 | 0.00 | 0.00 | 98 | 1029.7 |
| 20260510101815 | 59 | 226 | 0.0 | 0.9 | 0.00 | 0.00 | 0.00 | 98 | 1029.8 |
| 20260510101313 | 59 | 226 | 0.0 | 0.0 | 0.00 | 0.00 | 0.00 | 98 | 1029.7 |
| 20260510100809 | 59 | 226 | 0.0 | 0.0 | 0.00 | 0.00 | 0.00 | 98 | 1029.7 |
| 20260510100307 | 59 | 226 | 0.0 | 0.0 | 0.00 | 0.00 | 0.00 | 98 | 1029.5 |
| 20260510095802 | 59 | 226 | 0.0 | 0.9 | 0.00 | 0.00 | 0.00 | 98 | 1029.6 |
| 20260510095257 | 59 | 226 | 0.0 | 0.0 | 0.00 | 0.00 | 0.00 | 98 | 1029.6 |
| 20260510094751 | 59 | 226 | 0.0 | 0.0 | 0.00 | 0.00 | 0.00 | 98 | 1029.6 |
| 20260510094246 | 59 | 226 | 0.9 | 0.9 | 0.00 | 0.00 | 0.00 | 98 | 1029.4 |
| 20260510093742 | 59 | 226 | 0.0 | 0.0 | 0.00 | 0.00 | 0.00 | 98 | 1029.3 |
| 20260510093240 | 59 | 226 | 0.9 | 0.9 | 0.00 | 0.00 | 0.00 | 98 | 1029.3 |
| 20260510092736 | 59 | 226 | 0.0 | 0.0 | 0.00 | 0.00 | 0.00 | 97 | 1029.4 |
| 20260510092232 | 59 | 226 | 0.0 | 0.0 | 0.00 | 0.00 | 0.00 | 97 | 1029.2 |
| 20260510091727 | 59 | 226 | 0.0 | 0.0 | 0.00 | 0.00 | 0.00 | 97 | 1028.9 |
| 20260510091225 | 59 | 226 | 0.9 | 1.7 | 0.00 | 0.00 | 0.00 | 97 | 1028.8 |
| 20260510090721 | 59 | 226 | 0.0 | 0.0 | 0.00 | 0.00 | 0.00 | 98 | 1029.0 |
| 20260510090218 | 59 | 226 | 0.0 | 0.0 | 0.00 | 0.00 | 0.00 | 98 | 1028.7 |
| 20260510085713 | 59 | 226 | 0.0 | 0.0 | 0.00 | 0.00 | 0.00 | 97 | 1028.8 |
| 20260510085208 | 59 | 226 | 0.0 | 0.0 | 0.00 | 0.00 | 0.00 | 98 | 1028.6 |
| 20260510084704 | 59 | 226 | 0.0 | 0.9 | 0.00 | 0.00 | 0.00 | 97 | 1028.7 |
| 20260510084202 | 59 | 226 | 0.0 | 0.0 | 0.00 | 0.00 | 0.00 | 97 | 1028.8 |
| 20260510083658 | 59 | 226 | 0.0 | 0.0 | 0.00 | 0.00 | 0.00 | 97 | 1028.7 |
| 20260510083155 | 59 | 226 | 0.0 | 0.0 | 0.00 | 0.00 | 0.00 | 97 | 1028.8 |
| 20260510082651 | 59 | 226 | 0.0 | 0.0 | 0.00 | 0.00 | 0.00 | 97 | 1028.7 |
| 20260510082147 | 59 | 226 | 0.0 | 0.0 | 0.00 | 0.00 | 0.00 | 97 | 1028.8 |
| 20260510081642 | 59 | 226 | 0.0 | 0.0 | 0.00 | 0.00 | 0.00 | 97 | 1028.6 |
| 20260510081138 | 59 | 226 | 0.0 | 0.0 | 0.00 | 0.00 | 0.00 | 97 | 1028.5 |
| 20260510080637 | 59 | 226 | 0.0 | 0.0 | 0.00 | 0.00 | 0.00 | 97 | 1028.6 |
| 20260510080134 | 59 | 226 | 0.0 | 0.0 | 0.00 | 0.00 | 0.00 | 97 | 1028.5 |
| 20260510075631 | 59 | 226 | 0.0 | 0.0 | 0.00 | 0.00 | 0.00 | 97 | 1028.6 |
| 20260510075129 | 59 | 226 | 0.0 | 0.0 | 0.00 | 0.00 | 0.00 | 97 | 1028.5 |
| 20260510074625 | 59 | 226 | 0.0 | 0.0 | 0.00 | 0.00 | 0.00 | 97 | 1028.6 |
| 20260510074121 | 59 | 226 | 0.0 | 0.0 | 0.00 | 0.00 | 0.00 | 97 | 1028.6 |
| 20260510073617 | 59 | 226 | 0.0 | 0.0 | 0.00 | 0.00 | 0.00 | 97 | 1028.6 |
| 20260510073114 | 59 | 226 | 0.0 | 0.0 | 0.00 | 0.00 | 0.00 | 97 | 1028.6 |
| 20260510072611 | 59 | 226 | 0.0 | 0.0 | 0.00 | 0.00 | 0.00 | 97 | 1028.4 |
| 20260510072107 | 59 | 226 | 0.0 | 0.0 | 0.00 | 0.00 | 0.00 | 97 | 1028.4 |
| 20260510071603 | 59 | 226 | 0.0 | 0.0 | 0.00 | 0.00 | 0.00 | 97 | 1028.4 |
| 20260510071101 | 59 | 226 | 0.0 | 0.0 | 0.00 | 0.00 | 0.00 | 97 | 1028.2 |
| 20260510070557 | 59 | 226 | 0.0 | 0.0 | 0.00 | 0.00 | 0.00 | 97 | 1028.3 |
| 20260510070055 | 59 | 226 | 0.0 | 0.0 | 0.00 | 0.00 | 0.00 | 97 | 1028.5 |
| 20260510065551 | 59 | 226 | 0.9 | 0.9 | 0.00 | 0.00 | 0.00 | 97 | 1028.6 |
| 20260510065047 | 59 | 226 | 0.0 | 0.0 | 0.00 | 0.00 | 0.00 | 97 | 1028.6 |
| 20260510064543 | 59 | 226 | 0.0 | 0.0 | 0.00 | 0.00 | 0.00 | 97 | 1028.6 |
| 20260510064040 | 59 | 226 | 0.0 | 0.0 | 0.00 | 0.00 | 0.00 | 97 | 1028.4 |
| 20260510063537 | 59 | 226 | 0.0 | 0.0 | 0.00 | 0.00 | 0.00 | 97 | 1028.5 |
| 20260510063034 | 59 | 226 | 0.0 | 0.0 | 0.00 | 0.00 | 0.00 | 97 | 1028.3 |
| 20260510062530 | 59 | 226 | 0.0 | 0.0 | 0.00 | 0.00 | 0.00 | 97 | 1028.3 |
| 20260510062025 | 59 | 226 | 0.0 | 0.0 | 0.00 | 0.00 | 0.00 | 97 | 1028.4 |
| 20260510061522 | 59 | 226 | 0.0 | 0.0 | 0.00 | 0.00 | 0.00 | 97 | 1028.5 |
| 20260510061019 | 59 | 226 | 0.0 | 0.0 | 0.00 | 0.00 | 0.00 | 97 | 1028.5 |
| 20260510060515 | 60 | 226 | 0.0 | 0.0 | 0.00 | 0.00 | 0.00 | 97 | 1028.6 |
| 20260510060012 | 60 | 226 | 0.0 | 0.0 | 0.00 | 0.00 | 0.00 | 97 | 1028.2 |
| 20260510055508 | 60 | 226 | 0.0 | 0.0 | 0.00 | 0.00 | 0.00 | 97 | 1028.5 |
| 20260510055006 | 60 | 226 | 0.0 | 0.0 | 0.00 | 0.00 | 0.00 | 97 | 1028.7 |
| 20260510054501 | 60 | 226 | 0.0 | 0.0 | 0.00 | 0.00 | 0.00 | 97 | 1028.8 |
| 20260510053956 | 60 | 226 | 0.0 | 0.0 | 0.00 | 0.00 | 0.00 | 97 | 1028.7 |
| 20260510053451 | 60 | 226 | 0.0 | 0.0 | 0.00 | 0.00 | 0.00 | 97 | 1028.8 |
| 20260510052948 | 60 | 226 | 0.0 | 0.0 | 0.00 | 0.00 | 0.00 | 97 | 1028.7 |
| 20260510052444 | 60 | 226 | 0.0 | 0.0 | 0.00 | 0.00 | 0.00 | 97 | 1029.0 |
| 20260510051941 | 60 | 226 | 0.0 | 0.0 | 0.00 | 0.00 | 0.00 | 97 | 1028.8 |
| 20260510051437 | 60 | 226 | 0.0 | 0.0 | 0.00 | 0.00 | 0.00 | 97 | 1028.9 |
| 20260510050933 | 60 | 226 | 0.9 | 0.9 | 0.00 | 0.00 | 0.00 | 97 | 1029.0 |
| 20260510050430 | 60 | 226 | 0.0 | 0.0 | 0.00 | 0.00 | 0.00 | 96 | 1029.2 |
| 20260510045927 | 60 | 226 | 0.0 | 0.0 | 0.00 | 0.00 | 0.00 | 96 | 1029.0 |
| 20260510045424 | 60 | 226 | 0.0 | 0.0 | 0.00 | 0.00 | 0.00 | 96 | 1029.1 |
| 20260510044921 | 60 | 226 | 0.0 | 0.0 | 0.00 | 0.00 | 0.00 | 96 | 1029.0 |
| 20260510044418 | 60 | 226 | 0.0 | 0.0 | 0.00 | 0.00 | 0.00 | 96 | 1029.3 |
| 20260510043915 | 60 | 226 | 0.0 | 0.0 | 0.00 | 0.00 | 0.00 | 96 | 1029.3 |
| 20260510043411 | 61 | 226 | 0.0 | 0.0 | 0.00 | 0.00 | 0.00 | 96 | 1029.2 |
| 20260510042909 | 61 | 226 | 0.0 | 0.0 | 0.00 | 0.00 | 0.00 | 96 | 1029.1 |
| 20260510042404 | 61 | 226 | 0.0 | 0.0 | 0.00 | 0.00 | 0.00 | 96 | 1029.0 |
| 20260510041900 | 61 | 226 | 0.0 | 0.0 | 0.00 | 0.00 | 0.00 | 96 | 1029.0 |
| 20260510041358 | 61 | 226 | 0.0 | 0.0 | 0.00 | 0.00 | 0.00 | 96 | 1029.1 |
| 20260510040855 | 61 | 226 | 0.0 | 0.0 | 0.00 | 0.00 | 0.00 | 96 | 1029.1 |
| 20260510040352 | 61 | 226 | 0.0 | 0.0 | 0.00 | 0.00 | 0.00 | 96 | 1029.1 |
| 20260510035847 | 61 | 226 | 0.0 | 0.0 | 0.00 | 0.00 | 0.00 | 96 | 1029.1 |
| 20260510035343 | 61 | 226 | 0.0 | 0.0 | 0.00 | 0.00 | 0.00 | 96 | 1029.1 |
| 20260510034839 | 61 | 226 | 0.0 | 0.0 | 0.00 | 0.00 | 0.00 | 96 | 1028.9 |
| 20260510034337 | 61 | 226 | 0.0 | 0.0 | 0.00 | 0.00 | 0.00 | 96 | 1028.8 |
| 20260510033833 | 61 | 226 | 0.0 | 0.0 | 0.00 | 0.00 | 0.00 | 96 | 1028.9 |
| 20260510033330 | 61 | 226 | 0.0 | 0.0 | 0.00 | 0.00 | 0.00 | 96 | 1028.6 |
| 20260510032827 | 61 | 226 | 0.0 | 0.0 | 0.00 | 0.00 | 0.00 | 95 | 1028.7 |
| 20260510032324 | 61 | 226 | 0.0 | 0.0 | 0.00 | 0.00 | 0.00 | 95 | 1028.9 |
| 20260510031819 | 61 | 226 | 0.0 | 0.0 | 0.00 | 0.00 | 0.00 | 95 | 1028.8 |
| 20260510031315 | 61 | 226 | 0.0 | 0.0 | 0.00 | 0.00 | 0.00 | 95 | 1028.9 |
| 20260510030809 | 61 | 226 | 0.0 | 0.0 | 0.00 | 0.00 | 0.00 | 95 | 1028.9 |
| 20260510030306 | 62 | 226 | 0.0 | 0.0 | 0.00 | 0.00 | 0.00 | 95 | 1028.6 |
| 20260510025803 | 62 | 226 | 0.0 | 0.0 | 0.00 | 0.00 | 0.00 | 95 | 1028.6 |
| 20260510025301 | 62 | 226 | 0.0 | 0.0 | 0.00 | 0.00 | 0.00 | 95 | 1028.7 |
| 20260510024757 | 62 | 226 | 0.0 | 0.0 | 0.00 | 0.00 | 0.00 | 95 | 1028.7 |
| 20260510024254 | 62 | 226 | 0.0 | 0.0 | 0.00 | 0.00 | 0.00 | 95 | 1028.7 |
| 20260510023750 | 62 | 226 | 0.0 | 0.0 | 0.00 | 0.00 | 0.00 | 95 | 1028.5 |
| 20260510023247 | 62 | 226 | 0.0 | 0.0 | 0.00 | 0.00 | 0.00 | 94 | 1028.5 |
| 20260510022744 | 62 | 226 | 0.0 | 0.0 | 0.00 | 0.00 | 0.00 | 94 | 1028.7 |
| 20260510022244 | 63 | 226 | 0.0 | 0.0 | 0.00 | 0.00 | 0.00 | 94 | 1028.5 |
| 20260510021743 | 63 | 226 | 0.0 | 0.0 | 0.00 | 0.00 | 0.00 | 94 | 1028.5 |
| 20260510021241 | 63 | 226 | 0.0 | 0.0 | 0.00 | 0.00 | 0.00 | 94 | 1028.4 |
| 20260510020736 | 63 | 226 | 0.0 | 0.0 | 0.00 | 0.00 | 0.00 | 94 | 1028.5 |
| 20260510020226 | 63 | 226 | 0.0 | 0.0 | 0.00 | 0.00 | 0.00 | 94 | 1028.4 |
| 20260510015722 | 63 | 226 | 0.0 | 0.0 | 0.00 | 0.00 | 0.00 | 94 | 1028.6 |
| 20260510015218 | 63 | 226 | 0.0 | 0.0 | 0.00 | 0.00 | 0.00 | 94 | 1028.5 |
| 20260510014714 | 63 | 226 | 0.0 | 0.0 | 0.00 | 0.00 | 0.00 | 94 | 1028.6 |
| 20260510014211 | 63 | 226 | 0.0 | 0.0 | 0.00 | 0.00 | 0.00 | 93 | 1028.5 |
| 20260510013711 | 63 | 226 | 0.0 | 0.0 | 0.00 | 0.00 | 0.00 | 93 | 1028.2 |
| 20260510013207 | 63 | 226 | 0.0 | 0.0 | 0.00 | 0.00 | 0.00 | 93 | 1028.1 |
| 20260510012702 | 64 | 226 | 0.0 | 0.0 | 0.00 | 0.00 | 0.00 | 93 | 1027.9 |
| 20260510012157 | 64 | 226 | 0.0 | 0.0 | 0.00 | 0.00 | 0.00 | 92 | 1028.0 |
| 20260510011652 | 64 | 226 | 0.0 | 0.0 | 0.00 | 0.00 | 0.00 | 92 | 1027.8 |
| 20260510011149 | 64 | 226 | 0.0 | 0.0 | 0.00 | 0.00 | 0.00 | 92 | 1027.8 |
| 20260510010644 | 64 | 226 | 0.0 | 0.0 | 0.00 | 0.00 | 0.00 | 91 | 1027.8 |
| 20260510010142 | 65 | 226 | 0.0 | 0.0 | 0.00 | 0.00 | 0.00 | 91 | 1027.6 |
| 20260510005638 | 65 | 226 | 0.0 | 0.0 | 0.00 | 0.00 | 0.00 | 90 | 1027.6 |
| 20260510005135 | 65 | 226 | 0.0 | 0.0 | 0.00 | 0.00 | 0.00 | 90 | 1027.7 |
| 20260510004633 | 65 | 226 | 0.0 | 0.0 | 0.00 | 0.00 | 0.00 | 90 | 1027.4 |
| 20260510004131 | 65 | 226 | 0.0 | 0.0 | 0.00 | 0.00 | 0.00 | 89 | 1027.5 |
| 20260510003628 | 66 | 226 | 0.0 | 0.0 | 0.00 | 0.00 | 0.00 | 88 | 1027.6 |
| 20260510003124 | 66 | 226 | 0.0 | 0.0 | 0.00 | 0.00 | 0.00 | 88 | 1027.4 |
| 20260510002624 | 66 | 226 | 0.0 | 0.0 | 0.00 | 0.00 | 0.00 | 87 | 1027.5 |
| 20260510002121 | 67 | 226 | 0.0 | 0.0 | 0.00 | 0.00 | 0.00 | 86 | 1027.5 |
| 20260510001618 | 67 | 226 | 0.0 | 0.0 | 0.00 | 0.00 | 0.00 | 85 | 1027.4 |
| 20260510001117 | 67 | 226 | 0.0 | 0.0 | 0.00 | 0.00 | 0.00 | 84 | 1027.7 |
| 20260510000616 | 68 | 226 | 0.0 | 0.0 | 0.00 | 0.00 | 0.00 | 83 | 1027.6 |
| 20260510000114 | 69 | 226 | 0.0 | 0.0 | 0.00 | 0.00 | 0.00 | 82 | 1027.5 |
| 20260509235610 | 69 | 226 | 0.0 | 0.0 | 0.00 | 0.00 | 0.00 | 81 | 1027.6 |
| 20260509235107 | 69 | 226 | 0.0 | 0.0 | 0.00 | 0.00 | 0.00 | 79 | 1027.5 |
| 20260509234603 | 70 | 226 | 0.0 | 0.0 | 0.00 | 0.00 | 0.00 | 78 | 1027.3 |
| 20260509234101 | 70 | 227 | 0.9 | 0.9 | 0.00 | 0.00 | 0.00 | 77 | 1027.2 |
| 20260509233558 | 71 | 227 | 0.0 | 0.9 | 0.00 | 0.00 | 0.00 | 75 | 1027.5 |
| 20260509233055 | 71 | 227 | 0.0 | 0.0 | 0.00 | 0.00 | 0.00 | 75 | 1027.1 |
| 20260509232552 | 71 | 227 | 0.0 | 0.0 | 0.00 | 0.00 | 0.00 | 74 | 1027.0 |
| 20260509232049 | 72 | 227 | 0.0 | 0.9 | 0.00 | 0.00 | 0.00 | 73 | 1026.8 |
| 20260509231545 | 72 | 227 | 0.0 | 0.9 | 0.00 | 0.00 | 0.00 | 72 | 1026.9 |
| 20260509231043 | 72 | 226 | 0.9 | 0.9 | 0.00 | 0.00 | 0.00 | 72 | 1027.0 |
| 20260509230539 | 72 | 233 | 0.0 | 0.9 | 0.00 | 0.00 | 0.00 | 71 | 1026.8 |
| 20260509230037 | 72 | 233 | 0.9 | 0.9 | 0.00 | 0.00 | 0.00 | 71 | 1026.7 |
| 20260509225532 | 73 | 222 | 0.9 | 1.7 | 0.00 | 0.00 | 0.00 | 70 | 1026.9 |
| 20260509225028 | 73 | 253 | 2.6 | 4.3 | 0.00 | 0.00 | 0.00 | 69 | 1026.9 |
| 20260509224524 | 73 | 226 | 1.7 | 1.7 | 0.00 | 0.00 | 0.00 | 69 | 1026.6 |
| 20260509224021 | 73 | 221 | 0.9 | 1.7 | 0.00 | 0.00 | 0.00 | 68 | 1026.7 |
| 20260509223517 | 73 | 210 | 1.7 | 1.7 | 0.00 | 0.00 | 0.00 | 68 | 1026.7 |
| 20260509223016 | 74 | 202 | 0.9 | 0.9 | 0.00 | 0.00 | 0.00 | 67 | 1026.9 |
| 20260509222511 | 74 | 217 | 1.7 | 0.9 | 0.00 | 0.00 | 0.00 | 68 | 1027.0 |
| 20260509222007 | 73 | 213 | 0.0 | 0.0 | 0.00 | 0.00 | 0.00 | 69 | 1026.7 |
| 20260509221503 | 73 | 215 | 0.9 | 0.9 | 0.00 | 0.00 | 0.00 | 69 | 1026.9 |
| 20260509220959 | 73 | 2 | 0.9 | 1.7 | 0.00 | 0.00 | 0.00 | 68 | 1027.2 |
| 20260509220455 | 73 | 238 | 1.7 | 1.7 | 0.00 | 0.00 | 0.00 | 68 | 1026.9 |
| 20260509215951 | 73 | 278 | 2.6 | 2.6 | 0.00 | 0.00 | 0.00 | 68 | 1027.0 |
| 20260509215447 | 73 | 219 | 0.9 | 1.7 | 0.00 | 0.00 | 0.00 | 68 | 1026.7 |
| 20260509214945 | 74 | 228 | 0.9 | 1.7 | 0.00 | 0.00 | 0.00 | 66 | 1026.8 |
| 20260509214442 | 74 | 204 | 0.9 | 1.7 | 0.00 | 0.00 | 0.00 | 67 | 1027.0 |
| 20260509213938 | 74 | 225 | 0.0 | 2.6 | 0.00 | 0.00 | 0.00 | 65 | 1026.6 |
| 20260509213434 | 74 | 238 | 0.0 | 5.2 | 0.00 | 0.00 | 0.00 | 65 | 1026.7 |
| 20260509212931 | 74 | 237 | 1.7 | 2.6 | 0.00 | 0.00 | 0.00 | 66 | 1026.9 |
| 20260509212429 | 73 | 228 | 2.6 | 5.2 | 0.00 | 0.00 | 0.00 | 66 | 1026.9 |
| 20260509211925 | 73 | 219 | 1.7 | 4.3 | 0.00 | 0.00 | 0.00 | 67 | 1026.8 |
| 20260509211420 | 72 | 216 | 1.7 | 4.3 | 0.00 | 0.00 | 0.00 | 68 | 1026.7 |
| 20260509210917 | 73 | 224 | 0.9 | 1.7 | 0.00 | 0.00 | 0.00 | 67 | 1026.7 |
| 20260509210414 | 73 | 234 | 1.7 | 2.6 | 0.00 | 0.00 | 0.00 | 66 | 1026.6 |
| 20260509205909 | 74 | 230 | 1.7 | 4.3 | 0.00 | 0.00 | 0.00 | 63 | 1026.9 |
| 20260509205404 | 76 | 332 | 2.6 | 4.3 | 0.00 | 0.00 | 0.00 | 61 | 1026.6 |
| 20260509204900 | 76 | 244 | 1.7 | 1.7 | 0.00 | 0.00 | 0.00 | 62 | 1026.5 |
| 20260509204357 | 74 | 225 | 1.7 | 4.3 | 0.00 | 0.00 | 0.00 | 65 | 1026.6 |
| 20260509203853 | 73 | 219 | 0.9 | 1.7 | 0.00 | 0.00 | 0.00 | 67 | 1026.6 |
| 20260509203349 | 73 | 217 | 0.9 | 1.7 | 0.00 | 0.00 | 0.00 | 68 | 1026.8 |
| 20260509202847 | 72 | 251 | 0.9 | 1.7 | 0.00 | 0.00 | 0.00 | 69 | 1026.7 |
| 20260509202342 | 72 | 236 | 1.7 | 1.7 | 0.00 | 0.00 | 0.00 | 69 | 1026.6 |
| 20260509201838 | 72 | 146 | 0.9 | 2.6 | 0.00 | 0.00 | 0.00 | 70 | 1026.7 |
| 20260509201334 | 72 | 171 | 0.9 | 2.6 | 0.00 | 0.00 | 0.00 | 71 | 1026.8 |
| 20260509200830 | 72 | 221 | 0.9 | 0.9 | 0.00 | 0.00 | 0.00 | 69 | 1026.9 |
| 20260509200326 | 72 | 214 | 0.9 | 0.9 | 0.00 | 0.00 | 0.00 | 68 | 1026.9 |
| 20260509195822 | 72 | 214 | 0.9 | 0.9 | 0.00 | 0.00 | 0.00 | 67 | 1026.9 |
| 20260509195317 | 72 | 212 | 0.0 | 1.7 | 0.00 | 0.00 | 0.00 | 65 | 1026.8 |
| 20260509194816 | 72 | 259 | 1.7 | 1.7 | 0.00 | 0.00 | 0.00 | 65 | 1026.9 |
| 20260509194313 | 72 | 227 | 0.9 | 1.7 | 0.00 | 0.00 | 0.00 | 67 | 1027.0 |
| 20260509193810 | 72 | 227 | 0.9 | 0.9 | 0.00 | 0.00 | 0.00 | 67 | 1026.9 |
| 20260509193309 | 72 | 236 | 0.9 | 1.7 | 0.00 | 0.00 | 0.00 | 67 | 1027.3 |
| 20260509192806 | 71 | 205 | 0.9 | 0.9 | 0.00 | 0.00 | 0.00 | 67 | 1027.2 |
| 20260509192305 | 71 | 245 | 1.7 | 2.6 | 0.00 | 0.00 | 0.00 | 66 | 1027.2 |
| 20260509191757 | 71 | 218 | 0.9 | 1.7 | 0.00 | 0.00 | 0.00 | 66 | 1027.3 |
| 20260509191254 | 72 | 208 | 1.7 | 1.7 | 0.00 | 0.00 | 0.00 | 66 | 1027.3 |
| 20260509190749 | 72 | 257 | 1.7 | 2.6 | 0.00 | 0.00 | 0.00 | 64 | 1027.4 |
| 20260509190247 | 72 | 164 | 0.0 | 0.9 | 0.00 | 0.00 | 0.00 | 66 | 1027.4 |
| 20260509185744 | 71 | 223 | 0.9 | 1.7 | 0.00 | 0.00 | 0.00 | 66 | 1027.3 |
| 20260509185240 | 71 | 231 | 0.9 | 1.7 | 0.00 | 0.00 | 0.00 | 67 | 1027.3 |
| 20260509184738 | 71 | 225 | 2.6 | 2.6 | 0.00 | 0.00 | 0.00 | 66 | 1027.5 |
| 20260509184235 | 71 | 234 | 2.6 | 2.6 | 0.00 | 0.00 | 0.00 | 65 | 1027.6 |
| 20260509183731 | 71 | 266 | 0.9 | 1.7 | 0.00 | 0.00 | 0.00 | 66 | 1027.5 |
| 20260509183226 | 71 | 208 | 2.6 | 5.2 | 0.00 | 0.00 | 0.00 | 64 | 1027.6 |
| 20260509182722 | 72 | 226 | 1.7 | 4.3 | 0.00 | 0.00 | 0.00 | 63 | 1027.6 |
| 20260509182220 | 72 | 314 | 0.9 | 0.9 | 0.00 | 0.00 | 0.00 | 63 | 1027.6 |
| 20260509181717 | 73 | 247 | 2.6 | 4.3 | 0.00 | 0.00 | 0.00 | 62 | 1027.6 |
| 20260509181215 | 73 | 223 | 0.9 | 1.7 | 0.00 | 0.00 | 0.00 | 63 | 1027.8 |
| 20260509180712 | 72 | 230 | 2.6 | 4.3 | 0.00 | 0.00 | 0.00 | 61 | 1027.9 |
| 20260509180208 | 72 | 214 | 1.7 | 2.6 | 0.00 | 0.00 | 0.00 | 61 | 1028.2 |
| 20260509175704 | 72 | 262 | 0.9 | 6.1 | 0.00 | 0.00 | 0.00 | 59 | 1027.9 |
| 20260509175201 | 73 | 218 | 4.3 | 5.2 | 0.00 | 0.00 | 0.00 | 59 | 1028.0 |
| 20260509174656 | 73 | 183 | 0.9 | 2.6 | 0.00 | 0.00 | 0.00 | 59 | 1028.2 |
| 20260509174151 | 73 | 232 | 0.9 | 5.2 | 0.00 | 0.00 | 0.00 | 58 | 1028.2 |
| 20260509173648 | 73 | 194 | 1.7 | 2.6 | 0.00 | 0.00 | 0.00 | 57 | 1028.1 |
| 20260509173143 | 73 | 195 | 0.0 | 4.3 | 0.00 | 0.00 | 0.00 | 57 | 1028.2 |
| 20260509172640 | 72 | 204 | 0.9 | 1.7 | 0.00 | 0.00 | 0.00 | 58 | 1028.3 |
| 20260509172136 | 72 | 260 | 2.6 | 2.6 | 0.00 | 0.00 | 0.00 | 57 | 1028.3 |
| 20260509171632 | 71 | 231 | 3.5 | 6.1 | 0.00 | 0.00 | 0.00 | 55 | 1028.4 |
| 20260509171128 | 72 | 104 | 0.0 | 1.7 | 0.00 | 0.00 | 0.00 | 55 | 1028.3 |
| 20260509170625 | 71 | 200 | 0.9 | 1.7 | 0.00 | 0.00 | 0.00 | 57 | 1028.3 |
| 20260509170121 | 71 | 256 | 2.6 | 7.8 | 0.00 | 0.00 | 0.00 | 55 | 1028.6 |
| 20260509165619 | 71 | 298 | 4.3 | 7.0 | 0.00 | 0.00 | 0.00 | 54 | 1028.5 |
| 20260509165115 | 72 | 225 | 1.7 | 4.3 | 0.00 | 0.00 | 0.00 | 56 | 1028.7 |
| 20260509164611 | 72 | 355 | 2.6 | 5.2 | 0.00 | 0.00 | 0.00 | 53 | 1028.7 |